www.pogodaiklimat.ru
ПОГОДА в Сельдце

Архив погоды в Сельдце (Польша)

Время
(UTC), дата
19 21.05
20 21.05
21 21.05
22 21.05
23 21.05
00 22.05
01 22.05
02 22.05
03 22.05
04 22.05
05 22.05
06 22.05
07 22.05
08 22.05
09 22.05
10 22.05
11 22.05
12 22.05
13 22.05
14 22.05
15 22.05
16 22.05
17 22.05
18 22.05
19 22.05
20 22.05
21 22.05
22 22.05
23 22.05
00 23.05
01 23.05
02 23.05
03 23.05
04 23.05
05 23.05
06 23.05
07 23.05
08 23.05
09 23.05
10 23.05
11 23.05
12 23.05
13 23.05
14 23.05
15 23.05
16 23.05
17 23.05
18 23.05
19 23.05
20 23.05
21 23.05
22 23.05
23 23.05
00 24.05
01 24.05
02 24.05
03 24.05
04 24.05
05 24.05
06 24.05
07 24.05
08 24.05
09 24.05
10 24.05
11 24.05
12 24.05
13 24.05
14 24.05
15 24.05
16 24.05
17 24.05
18 24.05
19 24.05
20 24.05
21 24.05
22 24.05
23 24.05
00 25.05
01 25.05
02 25.05
03 25.05
04 25.05
05 25.05
06 25.05
07 25.05
08 25.05
09 25.05
10 25.05
11 25.05
12 25.05
13 25.05
14 25.05
15 25.05
16 25.05
17 25.05
18 25.05
19 25.05
20 25.05
21 25.05
22 25.05
23 25.05
00 26.05
01 26.05
02 26.05
03 26.05
04 26.05
05 26.05
06 26.05
07 26.05
08 26.05
09 26.05
10 26.05
11 26.05
12 26.05
13 26.05
14 26.05
15 26.05
16 26.05
17 26.05
18 26.05
19 26.05
20 26.05
21 26.05
22 26.05
23 26.05
00 27.05
01 27.05
02 27.05
03 27.05
04 27.05
05 27.05
06 27.05
07 27.05
08 27.05
09 27.05
10 27.05
11 27.05
12 27.05
13 27.05
14 27.05
15 27.05
16 27.05
17 27.05
18 27.05
19 27.05
20 27.05
21 27.05
22 27.05
23 27.05
00 28.05
01 28.05
02 28.05
03 28.05
04 28.05
05 28.05
06 28.05
07 28.05
08 28.05
09 28.05
10 28.05
11 28.05
12 28.05
13 28.05
14 28.05
15 28.05
16 28.05
17 28.05
Ветер
(напр.,м/с)
Видим. Явления Облачность Т
(С)
Тd
(С)
f
(%)
Тe
(С)
Тes
(С)
Комфортность P
(гПа)
Po
(гПа)
Тmin
(С)
Tmax
(С)
R
(мм)
R24
(мм)
S
(см)
В 2 50 км 3/0
[Ci sp]
+20.0 +11.5 58 +22 +22 комфорт 1013.1 994.9
В 2 45 км 3/0
[Ci sp]
+18.3 +11.1 63 +19 +19 1013.5 995.2
СВ 1 40 км н/о +17.3 +11.3 68 +18 +18 1013.9 995.5
штиль 0 35 км н/о +14.8 +11.2 79 +15 +15 1014.1 995.5
СВ 1 30 км н/о +14.0 +11.3 84 +14 +14 1013.7 995.1
В 1 23 км н/о +13.4 +11.8 90 +14 +14 1013.1 994.5
СВ 1 26 км н/о +13.5 +12.1 91 +14 +14 1012.7 994.1
В 1 19 км н/о +13.0 +12.1 94 +13 +13 1012.6 994.0
В 1 2800 м в посл. час туман н/о +12.3 +11.5 95 +12 +12 1012.7 994.0
В 1 15 км н/о +14.5 +13.5 94 +15 +15 1012.7 994.1
СВ 2 20 км 4/0
[Ac cast Ci sp]
+17.0 +14.3 84 +17 +20 1012.4 994.0
СВ 2 26 км 4/0
[Ac trans Ci sp]
+19.8 +14.8 73 +22 +27 комфорт 1011.8 993.6 +12.2 +21.4
В 4 {9} 22 км 6/0
[Ac trans Ci sp]
+21.9 +13.5 59 +25 +30 комфорт 1011.6 993.5
В 2 {9} 29 км 8/0
[Ac cast Ci sp]
+23.1 +13.8 56 +27 +34 душно 1011.4 993.4
В 3 {9} 27 км 9/0
[Ac cast Ci sp]
+23.5 +13.4 53 +26 +34 жарко 1011.2 993.2
В 4-9 {9} 26 км 8/1 1500 м
[Cu med, cong Ac cast Ci sp]
+25.1 +11.3 42 +26 +32 жарко 1010.9 993.0
В 3 27 км 9/1 1500 м
[Cu hum Ac cast Ci sp]
+25.4 +11.9 43 +27 +34 жарко 1010.6 992.8
В 4 {9} 29 км 8/1 1500 м
[Cu hum Ac cast Ci sp]
+25.2 +13.1 47 +27 +33 жарко 1010.2 992.4
В 4-9 {9} 35 км 8/1 1500 м
[Cu hum Ac lent Ci sp]
+24.9 +11.5 43 +26 +31 жарко 1009.9 992.0
В 5-10 {10} 26 км 8/1 1500 м
[Cu med, cong Ac lent Ci sp]
+25.0 +12.2 45 +27 +29 жарко 1009.8 991.9
ЮВ 5 {10} 26 км 8/1 1500 м
[Cb calv Ac lent Ci sp]
+25.2 +11.0 41 +26 +28 жарко 1009.8 992.0
ЮВ 4 30 км 6/3 1500 м
[Cu med, cong Ac cast Cs]
+25.3 +11.5 42 +27 +28 жарко 1009.6 991.8
ЮВ 5 {10} 30 км 9/8 1500 м
[Cb cap Ac cast]
+24.7 +10.6 41 +26 +26 жарко 1009.8 991.9
Ю 3 {10} 30 км 9/9 1500 м
[Cb cap]
+21.4 +12.8 58 +24 +24 комфорт 1011.1 993.0 +19.8 +25.6
ЮВ 2 40 км 9/3 1500 м
[Cb cap Ac As Ci sp]
+19.9 +12.6 63 +22 +22 комфорт 1011.8 993.6
В 1 50 км 9/3 1500 м
[Cb cap Ac As]
+18.1 +12.5 70 +19 +19 1012.1 993.8
СВ 1 40 км слаб. ливневой дождь н/о +17.3 +12.8 75 +18 +18 1012.5 994.1
СЗ 1 35 км н/о +16.8 +13.5 81 +18 +18 1012.5 994.1
С 1 25 км н/о +16.0 +13.7 86 +17 +17 1012.2 993.8
С 1 22 км н/о +15.4 +13.2 87 +16 +16 1012.3 993.8 0.0
В 1 23 км н/о +15.2 +13.2 88 +16 +16 1012.4 993.9
В 1 24 км слаб. ливневой дождь н/о +15.0 +12.5 85 +16 +16 1012.6 994.1
ЮВ 2 40 км н/о +16.7 +10.1 65 +17 +17 1013.0 994.6
В 3 35 км в посл. час дождь н/о +17.0 +10.1 64 +17 +17 1013.4 995.0
ЮВ 3 30 км слаб. дождь 10/0
[Ac As]
+17.4 +10.0 62 +17 +18 1014.0 995.6
В 3 22 км в посл. час дождь 10/1 2000 м
[Sc Ac As]
+18.1 +10.9 63 +18 +20 1014.4 996.0 +15.0 +21.4 0.0 0.0
ЮВ 4 24 км 9/0
[Ac cast Cs]
+19.7 +10.9 57 +21 +24 комфорт 1014.4 996.1
В 4 24 км 9/0
[Ac cast Cs]
+22.9 +11.6 49 +25 +30 комфорт 1014.2 996.1
ЮВ 5 {10} 30 км 9/0
[Ac trans Cs]
+23.9 +10.2 42 +25 +30 комфорт 1014.4 996.4
ЮВ 6 {11} 29 км 9/1 1500 м
[Cu hum Ac trans Cs]
+24.6 +9.3 38 +25 +29 комфорт 1014.8 996.8
ЮВ 6-11 {11} 35 км 6/1 2000 м
[Cu med, cong Ac trans Cs]
+26.0 +8.5 33 +26 +30 жарко 1014.6 996.7
ЮВ 6 {12} 25 км 6/3 2000 м
[Cu med, cong Ac trans Cs]
+26.5 +7.5 30 +26 +30 жарко 1014.4 996.6
ЮВ 5-10 {13} 27 км 8/1 2000 м
[Cu med, cong Ac trans Cs]
+26.7 +6.7 28 +26 +30 жарко 1014.3 996.5
ЮВ 5-10 {10} 25 км 9/3 2000 м
[Cu med, cong Ac trans Cs]
+27.1 +7.0 28 +27 +29 жарко 1014.4 996.6
Ю 3 {13} 35 км 9/1 2000 м
[Cu med, cong Ac trans Cs]
+26.0 +8.0 32 +26 +28 жарко 1014.8 996.9
ЮВ 3 29 км 9/0
[Ac trans Cs]
+26.5 +8.0 31 +26 +28 жарко 1015.0 997.1
ЮВ 2 {8} 30 км 8/0
[Ac cast Cs]
+25.6 +7.2 31 +26 +26 жарко 1015.2 997.3
Ю 2 {13} 25 км 8/0
[Ac trans Cs]
+23.3 +8.9 40 +25 +25 комфорт 1015.9 997.8 +18.1 +27.5
З 2 {10} 30 км 8/0
[Ac trans Cs]
+19.3 +14.5 74 +21 +21 комфорт 1017.3 999.0
С 2 30 км 8/0
[Ac trans Cs]
+18.3 +14.4 78 +19 +19 1017.9 999.5
СВ 1 {10} 21 км н/о +16.4 +13.3 82 +17 +17 1018.2 999.7
В 1 12 км н/о +14.6 +13.1 91 +15 +15 1018.6 999.9
В 2 17 км н/о +14.2 +12.8 91 +14 +14 1018.7 1000.0
В 3 {10} 40 км н/о +16.6 +11.5 72 +16 +16 1018.5 1000.0
В 2 35 км н/о +16.1 +11.3 73 +16 +16 1019.0 1000.4
В 2 35 км н/о +15.6 +10.8 73 +16 +16 1019.1 1000.5
В 2 30 км н/о +14.5 +10.3 76 +14 +14 1019.3 1000.6
В 2 30 км н/о +15.3 +11.3 77 +15 +15 1019.7 1001.1
В 3 30 км 4/0
[Ac trans Ci sp]
+18.1 +11.9 67 +18 +20 1019.9 1001.4
ЮВ 3 25 км 5/0
[Ac trans Ci sp]
+20.1 +11.6 58 +22 +26 комфорт 1019.9 1001.6 +13.7 +23.3
В 3 35 км 3/0
[Ac trans Ci sp]
+21.2 +12.1 56 +23 +30 комфорт 1020.1 1001.8
В 2 28 км 4/0
[Ac trans Ci sp]
+22.9 +12.5 52 +26 +36 жарко 1020.2 1002.0
В 3 23 км 4/0
[Ac trans Ci sp]
+24.8 +11.7 44 +26 +37 жарко 1020.1 1002.1
В 3 29 км 3/0
[Ci sp]
+26.7 +12.0 40 +28 +41 жарко 1020.0 1002.1
В 3 28 км 4/1 600 м
[Cu med, cong Ci fib]
+27.3 +12.1 39 +29 +40 жарко 1019.6 1001.7
ЮВ 5 {8} 21 км 5/5 1500 м
[Cu med, cong Ci fib]
+28.4 +6.5 25 +27 +31 жарко 1019.1 1001.3
ЮВ 5-10 {11} 25 км 5/5 2000 м
[Cu med, cong Ci sp]
+28.5 +7.7 27 +28 +31 жарко 1018.6 1000.8
ЮВ 4-10 {10} 30 км 6/5 2000 м
[Cb calv Ci fib]
+28.3 +4.5 22 +27 +30 жарко 1018.3 1000.5
ЮВ 5-10 {11} 30 км 5/5 2000 м
[Cb calv Ci fib]
+27.9 +4.8 23 +27 +28 жарко 1018.3 1000.5
ЮВ 5 {11} 29 км 5/1 2000 м
[Cu med, cong Ac cuf Ci fib]
+27.3 +7.7 29 +27 +28 жарко 1018.3 1000.4
В 4 35 км 6/3 2000 м
[Cu med, cong Ac cuf Ci sp]
+25.7 +8.2 33 +26 +26 жарко 1019.0 1001.0
ЮВ 3 {11} 27 км 8/1 1500 м
[Cu hum Ac trans Ci sp]
+23.6 +9.9 42 +25 +25 комфорт 1020.0 1001.9 +19.9 +28.8
В 3 45 км 8/6 2000 м
[Cb calv Ac trans]
+22.5 +8.6 41 +24 +24 комфорт 1020.1 1001.9
В 4 45 км 8/0
[Ac trans]
+21.3 +8.9 45 +23 +23 комфорт 1020.8 1002.5
ЮВ 3 45 км н/о +20.0 +9.3 50 +22 +22 комфорт 1021.4 1003.0
В 3 50 км н/о +19.0 +9.2 53 +20 +20 1021.3 1002.9
В 3 45 км н/о +18.8 +9.6 55 +20 +20 1021.1 1002.7
ЮВ 3 45 км н/о +18.3 +9.9 58 +19 +19 1021.2 1002.7
В 2 45 км н/о +17.6 +10.2 62 +18 +18 1020.8 1002.3
В 2 45 км н/о +16.7 +10.8 68 +17 +17 1020.7 1002.1
ЮВ 1 35 км н/о +16.0 +10.7 71 +17 +17 1021.0 1002.4
В 2 35 км н/о +16.6 +11.3 71 +17 +17 1021.3 1002.7
ЮВ 4 35 км 6/0
[Ac cast Ci fib]
+17.0 +11.3 69 +17 +18 1021.5 1002.9
ЮВ 3 35 км 6/0
[Ac cast Cs]
+18.7 +12.0 65 +20 +24 1021.5 1003.1 +15.5 +23.9
Ю 3 23 км 6/0
[Ac cast Cs]
+20.9 +11.5 55 +23 +29 комфорт 1021.2 1002.9
Ю 2 30 км 8/0
[Ac trans Cs]
+22.4 +11.8 51 +25 +34 комфорт 1021.0 1002.8
В 3 25 км 9/0
[Ac trans Cs]
+24.4 +12.0 46 +26 +36 жарко 1020.8 1002.7
В 4 30 км 8/1 1500 м
[Cu hum Ac cast Cs]
+25.2 +11.4 42 +27 +33 жарко 1020.7 1002.7
ЮВ 4-9 {9} 26 км 9/1 1500 м
[Cu med, cong Ac cast Cs]
+24.5 +11.8 45 +26 +32 жарко 1020.8 1002.7
ЮВ 4 {9} 30 км 9/3 1500 м
[Cu med, cong Ac cast Cs]
+24.9 +11.8 44 +26 +30 жарко 1020.5 1002.5
ЮВ 5 23 км 5/1 1500 м
[Cb cap Cs]
+25.7 +12.2 43 +27 +33 жарко 1019.9 1001.9
ЮВ 4 25 км 4/3 2000 м
[Cb cap Ci fib]
+25.9 +10.5 38 +27 +31 жарко 1019.2 1001.2
ЮВ 3 {8} 27 км 4/3 2000 м
[Cb cap Ci fib]
+25.4 +12.3 44 +27 +30 жарко 1019.2 1001.2
ЮВ 5 29 км 5/1 1500 м
[Cb cap Cs]
+25.4 +11.2 41 +27 +28 жарко 1018.8 1000.8
В 3 40 км 6/1 1500 м
[Cb cap Cs]
+24.5 +11.8 45 +26 +27 жарко 1018.8 1000.8
В 4 {8} 45 км 9/9 1500 м
[Cb cap]
+23.5 +12.2 49 +25 +25 комфорт 1019.5 1001.4 +18.7 +26.2
ЮВ 2 {11} 40 км в посл. час гроза 8/3 1500 м
[Cb cap Ac cuf Cs]
+20.3 +10.4 53 +22 +22 комфорт 1020.6 1002.3
В 2 45 км зарница 6/1 1500 м
[Cb cap Cs]
+18.7 +10.0 57 +20 +20 1020.2 1001.8
ЮВ 2 {11} 45 км н/о +18.4 +10.5 60 +19 +19 1020.3 1001.9
ЮВ 1 40 км н/о +17.0 +11.0 68 +18 +18 1021.0 1002.5
ЮВ 2 45 км н/о +16.9 +10.7 67 +17 +17 1021.4 1002.8
ЮВ 2 {11} 50 км н/о +16.3 +11.0 71 +16 +16 1021.5 1002.9
В 2 45 км н/о +15.4 +10.6 73 +15 +15 1021.2 1002.6
штиль 0 45 км н/о +13.4 +10.2 81 +13 +13 1021.2 1002.4
В 1 40 км н/о +12.7 +10.1 84 +13 +13 1021.4 1002.6
В 2 30 км н/о +14.3 +11.4 83 +14 +14 1021.6 1002.9
В 2 27 км 9/0
[Ac trans Cs]
+18.1 +12.5 70 +19 +20 1021.5 1003.0
В 3 26 км 9/0
[Ac trans Ci sp]
+18.4 +11.5 64 +19 +21 1022.1 1003.6 +12.6 +23.5
В 2 29 км 4/0
[Ac trans Ci sp]
+20.5 +11.9 58 +23 +30 комфорт 1022.0 1003.7
В 3 30 км 4/0
[Ac trans Ci sp]
+22.2 +11.6 51 +24 +33 комфорт 1022.0 1003.8
В 2 30 км 3/0
[Ac trans Ci sp]
+24.2 +10.8 43 +25 +39 комфорт 1022.0 1003.9
ЮВ 4 24 км 5/0
[Ac trans Ci sp]
+26.0 +10.2 37 +27 +34 жарко 1021.7 1003.7
ЮВ 4-9 {9} 22 км 5/1 2000 м
[Cu med, cong Ac trans Ci sp]
+26.5 +6.5 28 +26 +34 жарко 1021.7 1003.7
ЮВ 4 {10} 28 км 5/1 1500 м
[Cb calv Ac trans Ci sp]
+27.2 +7.1 28 +27 +34 жарко 1021.4 1003.5
Ю 3 24 км 4/1 1500 м
[Cb calv Ac trans Ci sp]
+27.1 +7.5 29 +27 +35 жарко 1021.1 1003.2
В 4 35 км 5/3 1500 м
[Cb calv Ci sp]
+26.9 +6.3 27 +26 +30 жарко 1020.8 1002.9
В 4 30 км 5/3 1500 м
[Cb calv Ci sp]
+26.9 +5.8 26 +26 +29 жарко 1020.7 1002.8
ЮВ 4 {8} 27 км 4/1 2000 м
[Cu med, cong Ci sp]
+26.3 +5.8 27 +26 +27 жарко 1020.9 1002.9
В 3 40 км 3/1 2000 м
[Cu med, cong Ci sp]
+25.2 +5.9 29 +25 +26 комфорт 1021.1 1003.1
В 3 {8} 40 км 5/1 2000 м
[Sc diur, vesp Ci sp]
+23.1 +5.5 32 +23 +24 комфорт 1021.8 1003.6 +18.2 +27.8
В 2 35 км 4/0
[Ac trans Ci sp]
+19.9 +6.2 41 +21 +21 комфорт 1022.6 1004.2
В 1 35 км 3/0
[Ci sp]
+15.9 +7.1 56 +17 +17 1023.1 1004.4
В 1 35 км н/о +13.5 +7.0 65 +14 +14 1023.3 1004.5
В 1 35 км н/о +11.8 +6.5 70 +12 +12 1023.4 1004.5
штиль 0 35 км н/о +10.4 +6.7 78 +10 +10 1023.6 1004.6
штиль 0 24 км н/о +9.1 +6.7 85 +8 +8 1023.6 1004.5
штиль 0 18 км н/о +8.0 +6.1 88 +7 +7 1023.6 1004.4
штиль 0 7000 м дымка н/о +7.2 +5.8 91 +6 +6 1023.5 1004.3
В 1 12 км н/о +6.8 +5.6 92 +6 +6 1023.7 1004.4
штиль 0 21 км н/о +9.4 +8.5 94 +9 +9 1023.5 1004.4
штиль 0 27 км 1/0
[Ci sp]
+16.3 +9.0 62 +16 +20 1023.3 1004.7
ЮВ 2 19 км 3/0
[Ci sp]
+21.4 +6.1 37 +22 +28 комфорт 1023.1 1004.8 +6.7 +23.1
ЮВ 2 21 км 3/0
[Ci fib]
+23.4 +5.8 32 +24 +32 комфорт 1023.0 1004.8
ЮВ 3 30 км 3/0
[Ci fib]
+25.0 +4.7 27 +24 +34 комфорт 1022.7 1004.6
В 3-8 {9} 35 км 3/0
[Ci fib]
+26.0 +2.0 21 +25 +36 комфорт 1022.3 1004.3
ЮВ 3 {8} 29 км 1/0
[Ci fib]
+26.3 +4.1 24 +25 +39 комфорт 1022.0 1004.0
ЮВ 2 27 км 1/1 2000 м
[Cu hum Ci fib]
+27.0 +4.7 24 +26 +41 жарко 1021.6 1003.7
ЮВ 3 {9} 30 км 1/1 2000 м
[Cu hum Ci fib]
+27.4 +3.8 22 +26 +37 жарко 1021.2 1003.3
ЮВ 3 {9} 30 км 3/1 2000 м
[Cu hum Ci sp]
+27.6 +4.6 23 +26 +35 жарко 1020.7 1002.8
ЮВ 4 27 км 1/1 2000 м
[Cu hum]
+27.1 +3.5 22 +26 +31 жарко 1020.2 1002.3
ЮВ 3 {9} 29 км 1/1 2000 м
[Cu hum Ci sp]
+27.0 +4.7 24 +26 +30 жарко 1019.7 1001.8
ЮВ 3 29 км 1/1 2000 м
[Cu hum Ci sp]
+26.5 +3.7 23 +25 +28 комфорт 1019.3 1001.4
ЮВ 3 30 км 1/0
[Ci sp]
+25.8 +2.5 22 +25 +25 комфорт 1019.2 1001.2
ЮВ 2 {9} 30 км 3/0
[Ci fib]
+24.0 +3.8 27 +24 +24 комфорт 1019.2 1001.1 +21.4 +27.7
ЮВ 2 15 км 1/0
[Ci fib]
+20.4 +6.3 40 +22 +22 комфорт 1019.6 1001.3
ЮВ 1 13 км 1/0
[Ci fib]
+16.7 +6.8 52 +18 +18 1020.0 1001.5
В 1 25 км н/о +14.0 +7.1 63 +14 +14 1020.3 1001.6
штиль 0 29 км н/о +12.2 +7.5 73 +12 +12 1020.4 1001.6
СВ 1 28 км н/о +10.9 +7.6 80 +11 +11 1020.4 1001.5
штиль 0 30 км н/о +10.2 +7.4 83 +10 +10 1020.4 1001.4
штиль 0 24 км н/о +9.0 +6.4 84 +8 +8 1020.3 1001.2
штиль 0 20 км н/о +8.3 +6.6 89 +7 +7 1019.9 1000.8
штиль 0 25 км н/о +8.0 +6.5 90 +7 +7 1019.8 1000.7
штиль 0 29 км н/о +10.2 +8.3 88 +9 +9 1019.5 1000.5
СВ 1 25 км 4/0
[Ac trans Ci fib]
+16.3 +10.4 68 +17 +20 1019.1 1000.5
В 1 30 км 5/0
[Ac trans Ci fib]
+21.3 +8.5 44 +22 +28 комфорт 1018.4 1000.2 +8.0 +24.0
ЮВ 3 21 км 4/0
[Ac trans Ci fib]
+23.9 +7.1 34 +24 +31 комфорт 1018.3 1000.2
ЮВ 3 29 км 3/0
[Ci fib]
+26.0 +6.6 29 +26 +35 жарко 1018.1 1000.2
ЮВ 3 {10} 29 км 4/1 2000 м
[Cu hum Ci fib]
+26.2 +5.7 27 +26 +36 жарко 1017.9 1000.0
ЮВ 4 {10} 22 км 5/4 2000 м
[Cu med, cong Ci fib]
+26.7 +5.6 26 +26 +32 жарко 1017.5 999.6
ЮВ 5-10 {10} 30 км 6/5 2000 м
[Cu med, cong Ci fib]
+26.8 +5.1 25 +26 +30 жарко 1017.1 999.2
Ю 5-10 {10} 27 км 8/6 2000 м
[Cu med, cong Ac trans]
+27.5 +6.8 27 +27 +29 жарко 1016.6 998.8
ЮВ 4 28 км 9/6 2000 м
[Cu med, cong Ac und]
+25.8 +5.9 28 +25 +27 комфорт 1016.5 998.6
ЮВ 3 30 км 9/5 2000 м
[Cu med, cong Ac trans]
+26.2 +6.8 29 +26 +28 жарко 1016.1 998.2
ЮВ 3 40 км 9/4 2000 м
[Cu med, cong Ac As]
+25.4 +7.0 31 +25 +27 комфорт 1015.7 997.8
ЮВ 2 24 км 8/1 2000 м
[Sc diur, vesp Ac As]
+25.6 +7.7 32 +26 +27 жарко 1015.3 997.4
Ю 2 20 км 9/1 2000 м
[Sc diur, vesp Ac trans]
+24.8 +7.4 33 +25 +25 комфорт 1015.4 997.4
Местоположение метеостанции Сельдце (Польша): широта 52.25 долгота 22.25 высота над уровнем моря 155 м.
В архиве по умолчанию представлена погода в Сельдце за последнюю неделю. Архивные данные за месяц целиком и за предыдущие месяцы, начиная с января 2011 года, Вы можете получить, выбрав интересующий диапазон дат из раскрывающегося списка и нажав кнопку "Найти!".
*Определитесь, кто Вы:
Внимание! Время в таблицах - всемирное. Для получения местного времени необходимо прибавить поправку, которая равна 1 ч.
Некоторые строки с данными для отдельных станций могут быть выделены курсивом. Это означает, что фактические данные отсутствуют по различным причинам, а приведенные значения являются расчетными модельными данными для данного пункта наблюдений.
Смотрите также архив погоды в соседних городах и на ближайших метеорологических станциях:
Партнеры нашего сайта:      
Пояснения к столбцам:
  • Ветер - указаны скорость ветра в м/с - средняя за 10 мин, порывы в срок и между сроками (в фигурных скобках) и направление, откуда дует ветер: С - северный,
  • СВ - северо-восточный, В - восточный, ЮВ - юго-восточный, Ю - южный, ЮЗ - юго-западный, З - западный, СЗ - северо-западный.
  • Видимость - горизонтальная дальность видимости в метрах или километрах. При видимости от 1 до 10 км при отсутствии осадков обычно наблюдается дымка, при ухудшении видимости до 1 км и менее - туман. В сухую погоду видимость может ухудшаться дымом, пылью или мглою.
  • Явления - указаны атмосферные явления, наблюдавшиеся в срок или в последний час перед сроком; фигурными скобками обозначены явления, наблюдавшиеся между сроками (за 1-3 часа до срока); квадратными скобками обозначены град или гололедные отложения с указанием их диаметра в мм.
  • Облачность - указаны через наклонную черту общая и нижняя облачность в баллах и высота нижней границы облаков в метрах; квадратными скобками обозначены формы облаков: Ci - перистые, Cs - перисто-слоистые, Cc - перисто-кучевые, Ac - высококучевые, As - высокослоистые, Sc - слоисто-кучевые, Ns - слоисто-дождевые, Cu - кучевые, Cb - кучево-дождевые. Подробнее классификацию облаков см. в Атласе облаков (PDF).
  • T - Температура воздуха - температура, измеренная на высоте 2 м над землей.
  • Td - Температура точки росы - температура, при понижении до которой содержащийся в воздухе водяной пар достигнет насыщения.
  • f - Относительная влажность воздуха - влажноcть воздуха, измеренная на высоте 2 м над землей.
  • Te - Эффективная температура - температура, которую ощущает одетый по сезону человек в тени. Характеристика душности погоды. При расчете учитывается влияние влажности воздуха и скорости ветра на теплоощущения человека.
  • Tes - Эффективная температура на солнце - температура, которую ощущает человек, с поправкой на солнечный нагрев. Характеристика знойности погоды. Зависит от высоты солнца над горизонтом, облачности и скорости ветра. Ночью, в пасмурную погоду, а также при ветре 12 м/с и более поправка равна нулю.
  • P - Атмосферное давление - приведенное к уровню моря атмосферное давление.
  • Po - Атмосферное давление - измеренное на уровне метеостанции атмосферное давление.
  • Tmin - Минимальная температура - минимум температуры воздуха на высоте 2 м над землей.
  • Tmax - Максимальная температура - максимум температуры воздуха на высоте 2 м над землей.
  • R - Количество осадков - Количество выпавших осадков за период времени, мм. При наведении курсора мыши на число - период времени, за который выпало указанное количество осадков.
  • R24 - Количество осадков - Количество выпавших осадков за 24 часа, мм.
  • S - Снежный покров - Высота снежного покрова, см. При наведении курсора мыши на число - состояние снежного покрова и степень покрытия местности в баллах.